Lake Harding Weather Center

Moon Phase Calendar



Lake Harding Water Level
Online Cameras

 


      

Current Conditions in Valley
12/8/2021 2:07:14 PM

58°F
Feels Like 56
Clouds
Humidity
75%
Pressure
30"
Wind
9.3 mph (WNW)
Dew Point
50°F
UV Index
3/10 (Moderate)
Visibility
6 mi

Hourly Forecast

Date & Time Wed, Dec 8
2:00 PM
Wed, Dec 8
3:00 PM
Wed, Dec 8
4:00 PM
Wed, Dec 8
5:00 PM
Wed, Dec 8
6:00 PM
Wed, Dec 8
7:00 PM
Wed, Dec 8
8:00 PM
Wed, Dec 8
9:00 PM
Wed, Dec 8
10:00 PM
Wed, Dec 8
11:00 PM
Thu, Dec 9
12:00 AM
Thu, Dec 9
1:00 AM
Thu, Dec 9
2:00 AM
Thu, Dec 9
3:00 AM
Thu, Dec 9
4:00 AM
Thu, Dec 9
5:00 AM
Thu, Dec 9
6:00 AM
Thu, Dec 9
7:00 AM
Thu, Dec 9
8:00 AM
Thu, Dec 9
9:00 AM
Thu, Dec 9
10:00 AM
Thu, Dec 9
11:00 AM
Thu, Dec 9
12:00 PM
Thu, Dec 9
1:00 PM
Thu, Dec 9
2:00 PM
Thu, Dec 9
3:00 PM
Thu, Dec 9
4:00 PM
Thu, Dec 9
5:00 PM
Thu, Dec 9
6:00 PM
Thu, Dec 9
7:00 PM
Thu, Dec 9
8:00 PM
Thu, Dec 9
9:00 PM
Thu, Dec 9
10:00 PM
Thu, Dec 9
11:00 PM
Fri, Dec 10
12:00 AM
Fri, Dec 10
1:00 AM
Fri, Dec 10
2:00 AM
Fri, Dec 10
3:00 AM
Fri, Dec 10
4:00 AM
Fri, Dec 10
5:00 AM
Fri, Dec 10
6:00 AM
Fri, Dec 10
7:00 AM
Fri, Dec 10
8:00 AM
Fri, Dec 10
9:00 AM
Fri, Dec 10
10:00 AM
Fri, Dec 10
11:00 AM
Fri, Dec 10
12:00 PM
Fri, Dec 10
1:00 PM
Condition
Clouds

Clouds

Clouds

Clouds

Clouds

Clouds

Clear

Clear

Clear

Clear

Clear

Clouds

Clouds

Clouds

Clouds

Clouds

Clouds

Clouds

Clouds

Clouds

Clouds

Clouds

Clouds

Clouds

Clouds

Clouds

Clouds

Clouds

Clouds

Clouds

Clouds

Clouds

Clouds

Clouds

Rain

Clouds

Rain

Clouds

Rain

Rain

Rain

Rain

Clouds

Clouds

Rain

Rain

Clouds

Clouds
Temperature 58°F58°F58°F57°F53°F49°F48°F47°F45°F44°F44°F43°F43°F43°F43°F43°F43°F43°F43°F47°F51°F55°F58°F59°F61°F62°F62°F59°F58°F58°F58°F58°F58°F57°F58°F58°F59°F59°F60°F60°F60°F61°F62°F63°F64°F65°F67°F68°F
Feels Like 56°F57°F57°F56°F51°F48°F46°F44°F43°F43°F42°F41°F41°F42°F41°F41°F40°F40°F41°F45°F49°F52°F55°F57°F59°F60°F60°F58°F57°F57°F57°F57°F57°F57°F58°F58°F59°F59°F60°F60°F60°F61°F62°F64°F65°F66°F68°F69°F
Cloudiness 91%85%71%56%38%21%0%0%0%0%4%15%11%24%26%24%23%31%93%96%98%98%99%99%100%100%100%100%100%100%100%100%100%100%100%100%100%100%100%100%100%100%100%100%100%100%100%100%
Visibility 6 mi6 mi6 mi6 mi6 mi6 mi6 mi6 mi6 mi6 mi6 mi6 mi6 mi6 mi6 mi6 mi6 mi6 mi6 mi6 mi6 mi6 mi6 mi6 mi6 mi6 mi6 mi6 mi6 mi6 mi6 mi6 mi6 mi6 mi6 mi6 mi6 mi6 mi6 mi6 mi6 mi2 mi0 mi0 mi1 mi1 mi2 mi6 mi
Precipitation 0%0%0%0%0%0%0%0%0%0%0%0%0%0%0%0%0%0%0%0%0%0%0%0%0%0%0%0%0%0%1%1%8%13%33%9%42%40%59%80%88%88%40%60%79%68%60%60%
Humidity 75%73%70%70%75%76%75%75%73%72%71%69%68%65%64%64%64%64%65%60%53%50%49%51%54%58%64%74%77%78%80%83%85%87%89%91%93%94%96%98%99%99%99%98%98%97%96%94%
Dew Point 50°F49°F49°F47°F45°F42°F40°F39°F37°F36°F35°F34°F33°F32°F31°F31°F31°F31°F32°F34°F35°F36°F38°F41°F44°F47°F49°F50°F50°F51°F51°F52°F53°F53°F54°F55°F56°F57°F58°F59°F59°F60°F61°F62°F63°F64°F66°F66°F
Pressure 30"30"30"30"30.03"30.06"30.09"30.09"30.09"30.12"30.12"30.12"30.09"30.12"30.12"30.12"30.12"30.15"30.15"30.18"30.18"30.18"30.15"30.12"30.09"30.09"30.09"30.09"30.12"30.12"30.12"30.09"30.09"30.12"30.09"30.09"30.09"30.09"30.06"30.06"30.06"30.06"30.09"30.09"30.09"30.09"30.09"30.06"
Wind Speed 9.3 mph8.6 mph7.3 mph6.4 mph5.1 mph5.1 mph5.3 mph5 mph4.2 mph3.8 mph3.4 mph4.1 mph4.1 mph3.2 mph3.5 mph3.7 mph3.9 mph4.3 mph4.3 mph4.7 mph6.4 mph6.6 mph6.2 mph6.5 mph6.5 mph6.6 mph4.6 mph5.3 mph4.8 mph6 mph5.6 mph5.4 mph5.1 mph4.5 mph5 mph4.8 mph4.7 mph5.6 mph4.9 mph4.5 mph5.2 mph5.6 mph6.8 mph6.9 mph7 mph6.9 mph6.8 mph6.6 mph
Wind
Direction
300°
WNW
303°
WNW
313°
NW
320°
NW
330°
NNW
341°
NNW
352°
N

N
21°
NNE
30°
NNE
26°
NNE
43°
NE
54°
NE
54°
NE
61°
ENE
76°
ENE
83°
E
104°
ESE
100°
E
112°
ESE
124°
SE
137°
SE
141°
SE
153°
SSE
162°
SSE
168°
SSE
156°
SSE
138°
SE
123°
ESE
128°
SE
133°
SE
131°
SE
134°
SE
138°
SE
135°
SE
142°
SE
147°
SSE
140°
SE
153°
SSE
155°
SSE
146°
SE
149°
SSE
160°
SSE
176°
S
186°
S
183°
S
181°
S
185°
S

Daily Forecast

Date High Low Precip. Humidity
Today
Dec 8

Rain
58 °F
44 °F
100%
81%
Thursday
Dec 9

Clouds
62 °F
43 °F
13%
49%
Friday
Dec 10

Rain
72 °F
58 °F
88%
94%
Saturday
Dec 11

Rain
72 °F
50 °F
99%
83%
Sunday
Dec 12

Clear
60 °F
39 °F
0%
34%
Monday
Dec 13

Clear
63 °F
42 °F
0%
46%
Tuesday
Dec 14

Clouds
70 °F
49 °F
0%
64%
Wednesday
Dec 15

Clear
71 °F
56 °F
0%
61%
Thursday
Dec 16

Clear
70 °F
53 °F
0%
57%
Friday
Dec 17

Clouds
72 °F
55 °F
0%
58%
Saturday
Dec 18

Clouds
72 °F
57 °F
0%
62%
Sunday
Dec 19

Rain
71 °F
58 °F
37%
80%
Monday
Dec 20

Rain
72 °F
64 °F
100%
96%
Tuesday
Dec 21

Rain
69 °F
56 °F
100%
96%
Wednesday
Dec 22

Clouds
59 °F
44 °F
71%
43%
Thursday
Dec 23

Clear
58 °F
40 °F
0%
45%

Temperature 8-14 Day Outlook



Precipitation 8-14 Day Outlook




Quick Links
Lake Harding News
Lake Harding Photos
Lake Harding Videos




About Us
Contact Us
Site Map
Search Site
Advertise With Us
   
www.LakeHardingNews.com
THE LAKE HARDING WEBSITE

Copyright 2021, Lakes Online
Privacy    |    Legal